Location: Vista Encantada
(35.1109°N, 106.5681°W)
Time: 08:15:59
(UTC+00:00)

Gblst 52 Del rocket - Pass Details

Date: 29 October 2020
Orbit: 805 x 1365 km, 51.5° (Epoch: 04 December)

Event Time Altitude Azimuth Distance (km) Brightness Sun altitude
Exits shadow 12:24:21 13° 246° (WSW) 2,230 5.9 -13.0°
Maximum altitude 12:29:20 57° 323° (NW) 1,006 4.4 -12.0°
Drops below altitude 10° 12:35:24 10° 42° (NE) 2,650 7.2 -10.8°
Sets 12:38:11 0° 47° (NE) 3,681 8.1 -10.2°
